This is the latest recevied weather packets stored in our database for station/object HA6IFZ-10. If no packets are shown the sender has not sent any weather packets the latest 10 day(s).
| Time | Temp. | Humidity | Pressure | Rain* | Wind** | Luminosity | Snow |
|---|---|---|---|---|---|---|---|
| 1787839383 | 28.33° C | 31% | 1026.5 hPa | - | - | - | - |
| 1787838483 | 28.33° C | 31% | 1026.5 hPa | - | - | - | - |
| 1787837583 | 30° C | 30% | 1026.6 hPa | - | - | - | - |
| 1787836683 | 28.89° C | 31% | 1026.7 hPa | - | - | - | - |
| 1787835783 | 30° C | 30% | 1026.8 hPa | - | - | - | - |
| 1787834882 | 29.44° C | 30% | 1026.9 hPa | - | - | - | - |
| 1787833982 | 29.44° C | 31% | 1027 hPa | - | - | - | - |
| 1787833082 | 28.33° C | 32% | 1027.1 hPa | - | - | - | - |
| 1787832182 | 28.89° C | 31% | 1027 hPa | - | - | - | - |
| 1787831282 | 29.44° C | 30% | 1027 hPa | - | - | - | - |
| 1787830382 | 29.44° C | 30% | 1027.1 hPa | - | - | - | - |
| 1787829482 | 28.89° C | 31% | 1027.2 hPa | - | - | - | - |
| 1787827687 | 28.33° C | 32% | 1027.6 hPa | - | - | - | - |
| 1787826786 | 28.33° C | 33% | 1027.7 hPa | - | - | - | - |
| 1787825886 | 27.22° C | 35% | 1027.7 hPa | - | - | - | - |
| 1787824986 | 26.67° C | 36% | 1027.8 hPa | - | - | - | - |
| 1787824086 | 26.67° C | 35% | 1027.7 hPa | - | - | - | - |
| 1787823186 | 26.67° C | 35% | 1027.9 hPa | - | - | - | - |
| 1787822286 | 26.67° C | 35% | 1027.9 hPa | - | - | - | - |
| 1787821386 | 27.22° C | 35% | 1028 hPa | - | - | - | - |
| 1787820486 | 26.67° C | 37% | 1028.4 hPa | - | - | - | - |
| 1787819586 | 25° C | 40% | 1028.4 hPa | - | - | - | - |
| 1787818686 | 24.44° C | 40% | 1028.3 hPa | - | - | - | - |
| 1787817785 | 24.44° C | 40% | 1028.2 hPa | - | - | - | - |
| 1787816885 | 24.44° C | 41% | 1028 hPa | - | - | - | - |
* Rain since midnight (hover to see other rain measurements)
** Current wind speed in m/s (hover to see current wind gust speed)